DW2633 Weather Reports


time (UTC)temp
F
wind
direction
speed
knots
gust
knots
rain 1hr
in
rain 24hr
in
rain mn
in
humidity
%
barometer
mb
20260831141533 64 319 1.7 0.0 0.00 0.00 0.00 91 1019.2
20260831141033 64 319 1.7 0.0 0.00 0.00 0.00 91 1019.3
20260831140535 64 319 1.7 0.0 0.00 0.00 0.00 91 1019.3
20260831140034 64 319 1.7 0.0 0.00 0.00 0.00 92 1019.3
20260831135533 63 319 1.7 0.0 0.00 0.00 0.00 94 1019.4
20260831135033 63 337 1.7 0.0 0.00 0.00 0.00 93 1019.3
20260831134533 63 340 1.7 0.0 0.00 0.00 0.00 94 1019.1
20260831134032 63 332 1.7 0.0 0.00 0.00 0.00 94 1019.2
20260831133533 63 331 1.7 0.0 0.00 0.00 0.00 94 1019.3
20260831133032 63 334 2.6 0.0 0.00 0.00 0.00 94 1019.3
20260831132532 63 334 3.5 0.0 0.00 0.00 0.00 94 1019.4
20260831132032 62 331 2.6 0.0 0.00 0.00 0.00 95 1019.3
20260831131543 62 9 0.9 0.0 0.00 0.00 0.00 94 1019.4
20260831131033 62 9 0.9 0.0 0.00 0.00 0.00 95 1019.4
20260831130531 62 5 0.9 0.0 0.00 0.00 0.00 95 1019.5
20260831130034 62 16 0.9 0.0 0.00 0.00 0.00 95 1019.4
20260831125531 62 80 0.9 0.0 0.00 0.00 0.00 95 1019.5
20260831125033 62 82 1.7 0.0 0.00 0.00 0.00 95 1019.4
20260831124531 62 28 1.7 0.0 0.00 0.00 0.00 95 1019.5
20260831124031 62 37 2.6 0.0 0.00 0.00 0.00 95 1019.5
20260831123530 62 342 2.6 0.0 0.00 0.00 0.00 95 1019.4
20260831123030 61 9 0.9 0.0 0.00 0.00 0.00 96 1019.5
20260831122530 61 52 0.9 0.0 0.00 0.00 0.00 96 1019.5
20260831122030 61 105 1.7 0.0 0.00 0.00 0.00 96 1019.5
20260831121531 61 106 1.7 0.0 0.00 0.00 0.00 96 1019.5
20260831121031 61 80 1.7 0.0 0.00 0.00 0.00 96 1019.5
20260831120529 61 81 1.7 0.0 0.00 0.00 0.00 96 1019.5
20260831120028 61 102 1.7 0.0 0.00 0.00 0.00 96 1019.5
20260831115528 60 101 2.6 0.0 0.00 0.00 0.00 96 1019.5
20260831115032 60 97 2.6 0.0 0.00 0.00 0.00 96 1019.6
20260831114527 60 80 2.6 0.0 0.00 0.00 0.00 96 1019.5
20260831114027 59 105 2.6 0.0 0.00 0.00 0.00 96 1019.4
20260831113527 59 114 3.5 0.0 0.00 0.00 0.00 96 1019.3
20260831113026 59 119 2.6 0.0 0.00 0.00 0.00 96 1019.3
20260831112526 59 134 1.7 0.0 0.00 0.00 0.00 96 1019.3
20260831112025 58 134 2.6 0.0 0.00 0.00 0.00 95 1019.3
20260831111526 58 134 1.7 0.0 0.00 0.00 0.00 96 1019.3
20260831111025 58 133 0.0 0.0 0.00 0.00 0.00 95 1019.2
20260831110524 58 133 0.0 0.0 0.00 0.00 0.00 95 1019.2
20260831110026 58 133 1.7 0.0 0.00 0.00 0.00 95 1019.1
20260831105523 58 133 3.5 0.0 0.00 0.00 0.00 95 1019.0
20260831105022 57 132 3.5 0.0 0.00 0.00 0.00 94 1019.0
20260831104527 57 133 3.5 0.0 0.00 0.00 0.00 94 1018.9
20260831104024 57 135 2.6 0.0 0.00 0.00 0.00 94 1018.8
20260831103525 57 135 2.6 0.0 0.00 0.00 0.00 94 1018.8
20260831103022 57 132 3.5 0.0 0.00 0.00 0.00 93 1018.7
20260831102519 57 131 1.7 0.0 0.00 0.00 0.00 93 1018.6
20260831102019 58 130 0.9 0.0 0.00 0.00 0.00 93 1018.7
20260831101519 58 130 1.7 0.0 0.00 0.00 0.00 93 1018.7
20260831101017 58 130 2.6 0.0 0.00 0.00 0.00 93 1018.7
20260831100518 58 130 1.7 0.0 0.00 0.00 0.00 93 1018.7
20260831100016 58 130 0.0 0.0 0.00 0.00 0.00 93 1018.6
20260831095516 58 130 0.9 0.0 0.00 0.00 0.00 93 1018.6
20260831095015 58 130 0.9 0.0 0.00 0.00 0.00 94 1018.5
20260831094516 58 128 0.9 0.0 0.00 0.00 0.00 94 1018.4
20260831094015 58 129 0.9 0.0 0.00 0.00 0.00 94 1018.4
20260831093516 58 130 0.0 0.0 0.00 0.00 0.00 93 1018.4
20260831093014 59 129 0.0 0.0 0.00 0.00 0.00 93 1018.3
20260831092513 59 126 0.0 0.0 0.00 0.00 0.00 93 1018.4
20260831092012 59 126 0.0 0.0 0.00 0.00 0.00 94 1018.3
20260831091511 59 126 0.9 0.0 0.00 0.00 0.00 94 1018.2
20260831091012 59 126 1.7 0.0 0.00 0.00 0.00 94 1018.1
20260831090513 59 127 2.6 0.0 0.00 0.00 0.00 93 1018.0
20260831090011 59 127 3.5 0.0 0.00 0.00 0.00 94 1018.0
20260831085510 59 125 3.5 0.0 0.00 0.00 0.00 93 1018.1
20260831085011 59 144 3.5 0.0 0.00 0.00 0.00 93 1018.1
20260831084510 59 129 3.5 0.0 0.00 0.00 0.00 93 1018.1
20260831084009 59 142 2.6 0.0 0.00 0.00 0.00 93 1018.1
20260831083508 59 144 1.7 0.0 0.00 0.00 0.00 93 1018.2
20260831083011 59 141 1.7 0.0 0.00 0.00 0.00 93 1018.2
20260831082508 59 132 0.0 0.0 0.00 0.00 0.00 93 1018.2
20260831082008 59 167 0.0 0.0 0.00 0.00 0.00 93 1018.2
20260831081507 59 167 0.9 0.0 0.00 0.00 0.00 92 1018.2
20260831081008 59 157 1.7 0.0 0.00 0.00 0.00 92 1018.1
20260831080508 59 144 2.6 0.0 0.00 0.00 0.00 92 1018.0
20260831080004 59 144 2.6 0.0 0.00 0.00 0.00 92 1017.9
20260831075503 59 138 2.6 0.0 0.00 0.00 0.00 92 1017.8
20260831075005 60 135 3.5 0.0 0.00 0.00 0.00 92 1017.8
20260831074505 60 116 3.5 0.0 0.00 0.00 0.00 92 1017.7
20260831074004 60 128 4.3 0.0 0.00 0.00 0.00 92 1017.7
20260831073503 60 126 4.3 0.0 0.00 0.00 0.00 91 1017.6
20260831073004 60 129 3.5 0.0 0.00 0.00 0.00 91 1017.7
20260831072500 60 134 2.6 0.0 0.00 0.00 0.00 91 1017.7
20260831072100 60 153 3.5 0.0 0.00 0.00 0.00 91 1017.7
20260831071600 60 155 4.3 0.0 0.00 0.00 0.00 91 1017.7
20260831071059 61 136 3.5 0.0 0.00 0.00 0.00 90 1017.7
20260831070559 61 143 3.5 0.0 0.00 0.00 0.00 90 1017.7
20260831070058 61 134 4.3 0.0 0.00 0.00 0.00 90 1017.8
20260831065557 61 129 3.5 0.0 0.00 0.00 0.00 90 1017.8
20260831065056 61 132 3.5 0.0 0.00 0.00 0.00 89 1017.8
20260831064555 62 132 3.5 0.0 0.00 0.00 0.00 89 1017.7
20260831064054 62 142 2.6 0.0 0.00 0.00 0.00 89 1017.7
20260831063553 62 132 2.6 0.0 0.00 0.00 0.00 88 1017.8
20260831063052 63 130 2.6 0.0 0.00 0.00 0.00 88 1017.8
20260831062552 63 128 3.5 0.0 0.00 0.00 0.00 87 1017.8
20260831062051 63 127 2.6 0.0 0.00 0.00 0.00 87 1017.7
20260831061551 64 123 1.7 0.0 0.00 0.00 0.00 86 1017.7
20260831061052 64 122 1.7 0.0 0.00 0.00 0.00 86 1017.7
20260831060550 65 121 1.7 0.0 0.00 0.00 0.00 85 1017.6
20260831060057 65 75 3.5 0.0 0.00 0.00 0.00 85 1017.6
20260831055553 65 64 4.3 0.0 0.00 0.00 0.00 87 1017.5
20260831055050 65 355 3.5 0.0 0.00 0.00 0.00 86 1017.5
20260831054550 66 347 4.3 0.0 0.00 0.00 0.00 87 1017.4
20260831054051 66 338 4.3 0.0 0.00 0.00 0.00 86 1017.5
20260831053550 66 344 5.2 0.0 0.00 0.00 0.00 86 1017.5
20260831053049 66 337 4.3 0.0 0.00 0.00 0.00 86 1017.6
20260831052548 66 329 4.3 0.0 0.00 0.00 0.00 86 1017.6
20260831052049 66 330 4.3 0.0 0.00 0.00 0.00 86 1017.7
20260831051553 66 5 4.3 0.0 0.00 0.00 0.00 87 1017.8
20260831051046 65 340 6.1 0.0 0.00 0.00 0.00 88 1017.8
20260831050545 64 349 7.0 0.0 0.00 0.00 0.00 89 1017.8
20260831050044 63 336 6.1 0.0 0.00 0.00 0.00 92 1017.7
20260831045544 63 311 5.2 0.0 0.00 0.00 0.00 92 1017.8
20260831045043 63 297 6.1 0.0 0.00 0.00 0.00 92 1017.8
20260831044544 63 282 7.0 0.0 0.00 0.00 0.00 92 1017.7
20260831044041 63 250 7.8 0.0 0.00 0.00 0.00 92 1017.7
20260831043542 63 265 7.8 0.0 0.00 0.00 0.00 92 1017.6
20260831043040 63 299 7.8 0.0 0.00 0.00 0.00 92 1017.6
20260831042541 63 270 7.8 0.0 0.00 0.00 0.00 92 1017.6
20260831042040 63 257 8.7 0.0 0.00 0.00 0.00 92 1017.5
20260831041630 63 258 8.7 0.0 0.00 0.00 0.00 92 1017.5
20260831041039 63 262 7.8 0.0 0.00 0.00 0.00 91 1017.5
20260831040537 63 242 7.0 0.0 0.00 0.00 0.00 91 1017.6
20260831040036 63 254 7.0 0.0 0.00 0.00 0.00 91 1017.6
20260831035536 64 252 7.8 0.0 0.00 0.00 0.00 91 1017.6
20260831035040 64 252 7.8 0.0 0.00 0.00 0.00 91 1017.6
20260831034536 64 252 7.8 0.0 0.00 0.00 0.00 91 1017.6
20260831034035 64 248 8.7 0.0 0.00 0.00 0.00 91 1017.7
20260831033535 64 260 8.7 0.0 0.00 0.00 0.00 90 1017.7
20260831033035 64 249 9.6 0.0 0.00 0.00 0.00 89 1017.8
20260831032534 64 257 6.1 0.0 0.00 0.00 0.00 89 1017.7
20260831032038 64 243 0.9 0.0 0.00 0.00 0.00 88 1017.7
20260831031535 64 173 0.0 0.0 0.00 0.00 0.00 88 1017.8
20260831031036 64 173 0.9 0.0 0.00 0.00 0.00 88 1017.8
20260831030538 64 211 1.7 0.0 0.00 0.00 0.00 87 1017.7
20260831030036 64 242 1.7 0.0 0.00 0.00 0.00 87 1017.7
20260831025534 65 221 2.6 0.0 0.00 0.00 0.00 87 1017.9
20260831025034 65 227 4.3 0.0 0.00 0.00 0.00 87 1017.9
20260831024540 65 257 4.3 0.0 0.00 0.00 0.00 87 1017.8
20260831024035 65 245 5.2 0.0 0.00 0.00 0.00 86 1017.8
20260831023536 65 252 4.3 0.0 0.00 0.00 0.00 86 1017.8
20260831023033 65 248 4.3 0.0 0.00 0.00 0.00 86 1017.7
20260831022532 65 234 5.2 0.0 0.00 0.00 0.00 86 1017.8
20260831022035 65 216 5.2 0.0 0.00 0.00 0.00 86 1017.8
20260831021542 65 223 3.5 0.0 0.00 0.00 0.00 86 1017.7
20260831021033 65 233 3.5 0.0 0.00 0.00 0.00 86 1017.8
20260831020535 65 224 3.5 0.0 0.00 0.00 0.00 86 1017.8
20260831020034 65 225 3.5 0.0 0.00 0.00 0.00 86 1017.8
20260831015532 65 223 2.6 0.0 0.00 0.00 0.00 85 1017.8
20260831015032 66 197 1.7 0.0 0.00 0.00 0.00 85 1017.7
20260831014532 66 217 1.7 0.0 0.00 0.00 0.00 85 1017.8
20260831014032 66 215 1.7 0.0 0.00 0.00 0.00 85 1017.7
20260831013532 66 219 0.9 0.0 0.00 0.00 0.00 85 1017.7
20260831013031 66 213 0.0 0.0 0.00 0.00 0.00 85 1017.7
20260831012531 66 220 0.9 0.0 0.00 0.00 0.00 85 1017.7
20260831012031 66 223 1.7 0.0 0.00 0.00 0.00 85 1017.7
20260831011544 66 213 2.6 0.0 0.00 0.00 0.00 85 1017.6
20260831011031 66 225 2.6 0.0 0.00 0.00 0.00 84 1017.5
20260831010530 66 226 4.3 0.0 0.00 0.00 0.00 85 1017.5
20260831010033 66 227 6.1 0.0 0.00 0.00 0.00 85 1017.4
20260831005531 66 249 7.0 0.0 0.00 0.00 0.00 86 1017.3
20260831005032 66 255 7.8 0.0 0.00 0.00 0.00 86 1017.2
20260831004530 66 247 7.8 0.0 0.00 0.00 0.00 86 1017.0
20260831004029 66 236 7.8 0.0 0.00 0.00 0.00 86 1017.1
20260831003533 67 263 7.8 0.0 0.00 0.00 0.00 86 1017.0
20260831003034 67 257 8.7 0.0 0.00 0.00 0.00 86 1016.9
20260831002529 67 275 9.6 0.0 0.00 0.00 0.00 86 1016.9
20260831002030 67 277 9.6 0.0 0.00 0.00 0.00 85 1016.9
20260831001532 67 282 10.4 0.0 0.00 0.00 0.00 85 1016.9
20260831001031 67 275 11.3 0.0 0.00 0.00 0.00 86 1016.7
20260831000529 67 265 11.3 0.0 0.00 0.00 0.00 86 1016.7
20260831000032 67 266 11.3 0.0 0.00 0.00 0.00 86 1016.7
20260830235529 67 277 11.3 0.0 0.00 0.00 0.00 86 1016.3
20260830235028 67 271 11.3 0.0 0.00 0.00 0.00 85 1016.4
20260830234528 67 261 10.4 0.0 0.00 0.00 0.00 85 1016.4
20260830234030 67 264 10.4 0.0 0.00 0.00 0.00 85 1016.2
20260830233528 67 241 10.4 0.0 0.00 0.00 0.00 86 1016.2
20260830233027 67 360 10.4 0.0 0.00 0.00 0.00 85 1016.3
20260830232527 67 264 11.3 0.0 0.00 0.00 0.00 85 1016.2
20260830232028 67 266 11.3 0.0 0.00 0.00 0.00 84 1016.2
20260830231527 67 256 9.6 0.0 0.00 0.00 0.00 85 1016.1
20260830231031 67 280 9.6 0.0 0.00 0.00 0.00 84 1016.1
20260830230526 67 275 10.4 0.0 0.00 0.00 0.00 84 1016.1
20260830230027 67 267 10.4 0.0 0.00 0.00 0.00 84 1016.1
20260830225526 67 268 8.7 0.0 0.00 0.00 0.00 85 1016.2
20260830225026 67 260 6.1 0.0 0.00 0.00 0.00 84 1016.2
20260830224526 67 244 6.1 0.0 0.00 0.00 0.00 85 1016.1
20260830224028 67 244 7.0 0.0 0.00 0.00 0.00 85 1016.1
20260830223526 67 247 8.7 0.0 0.00 0.00 0.00 85 1016.1
20260830223026 67 250 10.4 0.0 0.00 0.00 0.00 83 1016.1
20260830222524 68 271 11.3 0.0 0.00 0.00 0.00 84 1016.1
20260830222024 67 270 11.3 0.0 0.00 0.00 0.00 84 1016.1
20260830221524 67 284 11.3 0.0 0.00 0.00 0.00 83 1016.2
20260830221024 67 281 11.3 0.0 0.00 0.00 0.00 83 1016.2
20260830220524 67 281 10.4 0.0 0.00 0.00 0.00 83 1016.3
20260830220024 68 288 10.4 0.0 0.00 0.00 0.00 82 1016.3
20260830215524 67 264 8.7 0.0 0.00 0.00 0.00 83 1016.3
20260830215023 67 270 7.0 0.0 0.00 0.00 0.00 81 1016.3
20260830214523 67 281 7.0 0.0 0.00 0.00 0.00 81 1016.3
20260830214024 68 294 8.7 0.0 0.00 0.00 0.00 82 1016.3
20260830213523 68 311 9.6 0.0 0.00 0.00 0.00 81 1016.3
20260830213031 68 299 10.4 0.0 0.00 0.00 0.00 81 1016.4
20260830212523 68 307 11.3 0.0 0.00 0.00 0.00 81 1016.3
20260830212022 68 323 11.3 0.0 0.00 0.00 0.00 81 1016.2
20260830211522 69 311 13.0 0.0 0.00 0.00 0.00 78 1016.1
20260830211022 69 292 14.8 0.0 0.00 0.00 0.00 80 1016.1
20260830210521 70 292 15.6 0.0 0.00 0.00 0.00 80 1016.2
20260830210024 70 276 16.5 0.0 0.00 0.00 0.00 80 1016.2
20260830205521 71 288 16.5 0.0 0.00 0.00 0.00 78 1016.1
20260830205020 71 273 16.5 0.0 0.00 0.00 0.00 77 1016.0
20260830204520 72 282 17.4 0.0 0.00 0.00 0.00 77 1016.0
20260830204020 72 275 15.6 0.0 0.00 0.00 0.00 77 1015.8
20260830203520 72 265 13.0 0.0 0.00 0.00 0.00 79 1015.9
20260830203019 72 247 10.4 0.0 0.00 0.00 0.00 78 1015.8
20260830202519 72 242 7.8 0.0 0.00 0.00 0.00 75 1015.7
20260830202019 73 239 6.1 0.0 0.00 0.00 0.00 72 1015.6
20260830201518 73 221 6.1 0.0 0.00 0.00 0.00 72 1015.6
20260830201017 73 238 6.1 0.0 0.00 0.00 0.00 70 1015.7
20260830200518 74 237 6.1 0.0 0.00 0.00 0.00 71 1015.7
20260830200017 74 225 5.2 0.0 0.00 0.00 0.00 70 1015.6
20260830195517 75 238 5.2 0.0 0.00 0.00 0.00 70 1015.6
20260830195017 75 232 6.1 0.0 0.00 0.00 0.00 69 1015.6
20260830194521 76 248 4.3 0.0 0.00 0.00 0.00 68 1015.6
20260830194016 76 250 3.5 0.0 0.00 0.00 0.00 68 1015.6
20260830193517 76 242 3.5 0.0 0.00 0.00 0.00 70 1015.6
20260830193016 76 256 4.3 0.0 0.00 0.00 0.00 70 1015.6
20260830192515 76 214 3.5 0.0 0.00 0.00 0.00 70 1015.7
20260830192015 76 221 3.5 0.0 0.00 0.00 0.00 70 1015.8
20260830191519 76 227 3.5 0.0 0.00 0.00 0.00 66 1015.7
20260830191014 76 232 3.5 0.0 0.00 0.00 0.00 67 1015.8
20260830190514 76 248 3.5 0.0 0.00 0.00 0.00 66 1015.8
20260830190013 76 248 3.5 0.0 0.00 0.00 0.00 71 1015.9
20260830185515 76 252 3.5 0.0 0.00 0.00 0.00 69 1016.1
20260830185012 75 250 3.5 0.0 0.00 0.00 0.00 68 1016.1
20260830184515 75 238 3.5 0.0 0.00 0.00 0.00 69 1016.1
20260830184010 75 216 3.5 0.0 0.00 0.00 0.00 65 1016.3
20260830183512 75 238 2.6 0.0 0.00 0.00 0.00 67 1016.3
20260830183009 75 235 2.6 0.0 0.00 0.00 0.00 67 1016.4
20260830182508 75 226 3.5 0.0 0.00 0.00 0.00 68 1016.4
20260830182007 75 217 3.5 0.0 0.00 0.00 0.00 72 1016.4
20260830181507 75 242 4.3 0.0 0.00 0.00 0.00 70 1016.6
20260830181008 74 239 4.3 0.0 0.00 0.00 0.00 68 1016.6
20260830180504 74 242 4.3 0.0 0.00 0.00 0.00 67 1016.6
20260830180003 74 244 4.3 0.0 0.00 0.00 0.00 73 1016.7
20260830175502 73 222 4.3 0.0 0.00 0.00 0.00 72 1016.9
20260830175002 73 242 3.5 0.0 0.00 0.00 0.00 73 1016.8
20260830174604 72 229 3.5 0.0 0.00 0.00 0.00 74 1016.9
20260830174058 72 248 3.5 0.0 0.00 0.00 0.00 73 1017.0
20260830173557 72 235 2.6 0.0 0.00 0.00 0.00 76 1017.0
20260830173105 71 233 1.7 0.0 0.00 0.00 0.00 74 1017.0
20260830172556 71 225 1.7 0.0 0.00 0.00 0.00 74 1017.0
20260830172056 71 223 1.7 0.0 0.00 0.00 0.00 76 1016.9
20260830171629 71 207 1.7 0.0 0.00 0.00 0.00 73 1017.0
20260830171054 71 225 0.9 0.0 0.00 0.00 0.00 77 1017.1
20260830170554 71 182 0.9 0.0 0.00 0.00 0.00 76 1017.3
20260830170052 70 227 0.9 0.0 0.00 0.00 0.00 77 1017.4
20260830165555 70 228 0.9 0.0 0.00 0.00 0.00 74 1017.4
20260830165051 70 226 1.7 0.0 0.00 0.00 0.00 75 1017.5
20260830164551 70 222 2.6 0.0 0.00 0.00 0.00 73 1017.5
20260830164051 70 221 2.6 0.0 0.00 0.00 0.00 73 1017.5
20260830163551 70 227 0.9 0.0 0.00 0.00 0.00 75 1017.4
20260830163052 70 170 0.9 0.0 0.00 0.00 0.00 75 1017.5
20260830162551 70 222 1.7 0.0 0.00 0.00 0.00 74 1017.4
20260830162048 70 225 1.7 0.0 0.00 0.00 0.00 73 1017.5
20260830161549 70 211 0.9 0.0 0.00 0.00 0.00 74 1017.5
20260830161048 70 213 0.9 0.0 0.00 0.00 0.00 74 1017.6
20260830160547 70 178 0.9 0.0 0.00 0.00 0.00 74 1017.7
20260830160046 69 217 0.9 0.0 0.00 0.00 0.00 77 1017.8
20260830155547 69 220 0.9 0.0 0.00 0.00 0.00 77 1017.9
20260830155050 69 213 0.9 0.0 0.00 0.00 0.00 77 1018.0
20260830154544 69 146 0.9 0.0 0.00 0.00 0.00 76 1018.2
20260830154045 69 193 0.9 0.0 0.00 0.00 0.00 74 1018.3
20260830153543 69 211 0.9 0.0 0.00 0.00 0.00 73 1018.3
20260830153042 69 217 0.9 0.0 0.00 0.00 0.00 74 1018.4
20260830152541 69 221 0.9 0.0 0.00 0.00 0.00 75 1018.4
20260830152045 69 211 0.9 0.0 0.00 0.00 0.00 71 1018.5
20260830151544 69 227 1.7 0.0 0.00 0.00 0.00 73 1018.4
20260830151040 69 215 0.9 0.0 0.00 0.00 0.00 75 1018.5
20260830150539 68 229 0.9 0.0 0.00 0.00 0.00 73 1018.4
20260830150040 68 204 0.9 0.0 0.00 0.00 0.00 77 1018.5
20260830145536 68 145 1.7 0.0 0.00 0.00 0.00 78 1018.4
20260830145038 68 192 0.9 0.0 0.00 0.00 0.00 78 1018.4
20260830144543 67 155 0.9 0.0 0.00 0.00 0.00 78 1018.3
20260830144035 67 169 0.9 0.0 0.00 0.00 0.00 78 1018.3
20260830143533 67 217 0.0 0.0 0.00 0.00 0.00 78 1018.3
20260830143037 67 217 0.0 0.0 0.00 0.00 0.00 78 1018.5
20260830142531 67 218 0.9 0.0 0.00 0.00 0.00 77 1018.6
20260830142031 66 218 1.7 0.0 0.00 0.00 0.00 77 1018.4